Showing default

LEMUR 2 JOHNNYTRUONG, 59146

Orbit data source: Space-Track

LEMUR 2 JOHNNYTRUONG, 59146 is an American payload satellite in SSO that was launched on Mon, 04 Mar 2024 UTC via an FALCON 9 launch vehicle from the Air Force Western Test Range (AFWTR). Payload-class satellites include a variety of spacecraft equipped with specific instruments for various scientific and technological missions. These include communications satellites like Starlink; space stations such as the ISS; scientific satellites like the Hubble; Earth observation satellites from companies like Planet Labs, Umbra, and HawkEye 360; GPS; miniature CubeSats for education and research; and military/defense satellites.

Loading next visibility...
Identifier
59146, 2024-043BA
Orbit
SSO
Country
Flag of USUS
Related business
Manufacturer
Spire/Glasgow
Mission
Operational Commercial Communications
Bus & Motor
CUBESAT 16U, Unknown motor
Mass
22 kg wet, 22 kg dry
Launch date (UTC)
2024-03-04 (2 years ago)
Launch vehicle
FALCON 9
Launch site
Air Force Western Test Range (AFWTR)
Object type
Payload
Rocket body
Debris
Shape & HBR
Box + 4 Pan, 1.4 m
Radar Cross Section
0.326 m², Medium (>0.1 m² and < 1m²)

Expand to show TLE details & history
Last TLE update: 18 hours ago

TLE from 18 hours ago
0 LEMUR 2 JOHNNYTRUONG
1 59146U 24043BA  26235.37372283  .00043034  00000-0  42995-3 0  9997
2 59146  97.5415  31.5231 0002494 282.2357  77.8623 15.65501097138533
Epoch: 2026-08-23T08:58Z
TLE epoch observation values (Epoch: 2026-08-23T08:58:09.652Z)
Latitude
-0.00001°
Longitude
-74.68782°
Altitude
374.592 km
Speed
7.685 km/s
True Right ascension
02h 06m 05s
True Declination
0° 00' 00"
Sunlit
Object was in full shadow at epoch
Visualization orbit readout
Latitude
Unknown
Longitude
Unknown
Altitude
Unknown
Speed
Unknown
Apparent Right ascension
Unknown
Apparent Declination
Unknown
Sunlit
N/A
Visualization observer readout
Local Sidereal Time
17:51:04
Azimuth
Unknown
Elevation
Unknown
Doppler factor
Unknown
Orbital elements
Apogee altitude
370.392 km
Perigee altitude
367.027 km
Semi-major axis
6,746.846 km
Eccentricity
0.00025
Inclination
97.5415°
RAAN
31.5231°
Arg. of periapsis
282.2357°
True anomaly
77.89024°
Mean anomaly
77.8623°
Eccentric anomaly
77.87627°
Mean motion
3.91644 °/min
Orbital period
91.92 mins
BSTAR
0.00042995
Loading maneuver chart data...
Computing Atmospheric mass density...
Loading historical data...
Loading historical data...
Loading historical data...
Loading historical data...
Loading historical data...
Loading historical data...
Loading historical data...

Documentation

Showing up to 5 results
|